PulseSat

PulseSat

GSAT0215 (GALILEO 19)

Last updated on Dec. 10, 2018, 12:08 a.m. UTC

1 43055U 17079A   18342.45352335 -.00000056  00000-0  00000+0 0  9990
2 43055  56.7156 297.0492 0003115 264.8897  95.0518  1.70473502  6144
UTC
Height (km)
Latitude
Longitude
Inclination
Orbital Period

Next 30 passes for location: Hong Kong

Rise time Rise Azimuth (degrees) Set time Set Azimuth (degrees) Duration Max altitude (degrees)

No matching passes for this satellites

PulseSat

PulseSat is the new satellites software and hardware trackering solution by Pulsely.
Satellite Two Line Element Set source: US Air Force Space Command

Download PulseSat for iOS
© 2017 Pulsely Limited